Home   Weather   Limerick   Past weeks
Flag for Ireland

Past Weather in Limerick, Ireland — Yesterday and Last 2 Weeks

Now
48 °F

Rain. Partly cloudy.


Feels Like: 43 °F
Forecast: 56 / 48 °F
Wind: 12 mph from Northeast

Location: Shannon Airport

Current Time: Oct 14, 2019 at 6:43:54 am

Latest Report: Oct 14, 2019 at 6:00 am


Visibility: 3 mi

Pressure: 29.56 "Hg

Humidity: 94%

Dew Point: 46 °F

Location of LimerickLocation

Past Weather in Limerick — Graph

°F

Limerick Temperature Yesterday

Maximum temperature yesterday: 57 °F (at 1:30 pm)
Minimum temperature yesterday: 46 °F (at 8:30 pm)
Average temperature yesterday: 51 °F

High & Low Weather Summary for the Past Weeks

 TemperatureHumidityPressure
High63 °F (Sep 29, 4:00 pm)100% (Sep 30, 1:00 am)30.21 "Hg (Sep 30, 1:00 am)
Low39 °F (Oct 2, 3:00 am)51% (Oct 2, 2:00 pm)29.36 "Hg (Sep 29, 5:00 am)
Average54 °F84%29.69 "Hg
* Reported Sep 29 5:00 am — Oct 14 5:30 am, Limerick. Weather by CustomWeather, © 2019

Note: Actual official high and low records may vary slightly from our data, if they occured in-between our weather recording intervals... More about our weather records

Advertising

Limerick Weather History for the Previous 24 Hours

Scroll right to see more
 ConditionsComfort  
Time TempWeatherWind HumidityBarometerVisibility
5:30 am
Mon, Oct 14
48 °FRain. Partly cloudy.10 mph94%29.59 "Hg4 mi
5:00 am48 °FLight rain. Partly cloudy.12 mph94%29.59 "HgN/A
4:30 am48 °FLight rain. Partly cloudy.9 mph94%29.59 "HgN/A
4:00 am46 °FLight rain. Partly cloudy.5 mph93%29.62 "HgN/A
3:30 am46 °FLight rain. Partly cloudy.3 mph87%29.62 "HgN/A
3:00 am46 °FLight rain. Passing clouds.3 mph93%29.65 "HgN/A
2:30 am48 °FLight rain. Partly cloudy.2 mph82%29.65 "HgN/A
2:00 am48 °FPassing clouds.6 mph82%29.65 "HgN/A
1:30 am48 °FPartly cloudy.8 mph82%29.65 "HgN/A
1:00 am48 °FPassing clouds.7 mph87%29.65 "HgN/A
12:30 am48 °FClear.8 mph82%29.65 "Hg10 mi
12:00 am46 °FClear.7 mph87%29.68 "Hg10 mi
11:30 pm
Sun, Oct 13
46 °FClear.6 mph93%29.65 "Hg10 mi
11:00 pm48 °FClear.7 mph87%29.65 "Hg10 mi
10:30 pm46 °FClear.7 mph87%29.65 "Hg10 mi
10:00 pm48 °FClear.5 mph87%29.65 "Hg10 mi
9:30 pm46 °FClear.7 mph87%29.65 "Hg10 mi
9:00 pm46 °FPassing clouds.3 mph87%29.65 "HgN/A
8:30 pm46 °FPassing clouds.2 mph87%29.65 "HgN/A
8:00 pm48 °FPassing clouds.2 mph82%29.62 "HgN/A
7:30 pm50 °FPassing clouds.8 mph76%29.62 "HgN/A
7:00 pm52 °FPassing clouds.3 mph77%29.62 "HgN/A
6:30 pm54 °FPassing clouds.6 mph72%29.59 "HgN/A
6:00 pm55 °FPassing clouds.9 mph67%29.59 "HgN/A
5:30 pm55 °FPassing clouds.8 mph63%29.59 "HgN/A
5:00 pm57 °FPassing clouds.12 mph63%29.59 "HgN/A
4:30 pm57 °FPassing clouds.12 mph63%29.56 "HgN/A
4:00 pm57 °FPassing clouds.10 mph63%29.56 "HgN/A
3:30 pm55 °FScattered clouds.12 mph67%29.56 "HgN/A
3:00 pm55 °FScattered clouds.14 mph63%29.56 "HgN/A
2:30 pm57 °FScattered clouds.15 mph63%29.53 "HgN/A
2:00 pm57 °FScattered clouds.14 mph63%29.53 "HgN/A
1:30 pm57 °FScattered clouds.12 mph63%29.53 "HgN/A
1:00 pm55 °FPartly sunny.8 mph67%29.53 "HgN/A
12:30 pm55 °FBroken clouds.8 mph72%29.50 "HgN/A
12:00 pm55 °FBroken clouds.10 mph77%29.50 "HgN/A
11:30 am54 °FBroken clouds.8 mph82%29.50 "HgN/A
11:00 am52 °FPartly sunny.8 mph88%29.50 "HgN/A
10:30 am50 °FPartly sunny.8 mph94%29.50 "HgN/A
10:00 am50 °FPartly sunny.6 mph88%29.50 "HgN/A
9:30 am50 °FScattered clouds.8 mph88%29.50 "HgN/A
9:00 am50 °FPartly sunny.8 mph88%29.47 "HgN/A
8:30 am48 °FScattered clouds.7 mph94%29.47 "HgN/A
8:00 am48 °FPartly sunny.9 mph94%29.47 "HgN/A
7:30 am48 °FPartly cloudy.8 mph94%29.47 "HgN/A
7:00 am48 °FPartly cloudy.8 mph94%29.47 "HgN/A
6:30 am48 °FPassing clouds.7 mph94%29.50 "HgN/A
6:00 am48 °FPassing clouds.8 mph94%29.47 "HgN/A
Weather by CustomWeather, © 2019

See weather overview